TimeCST,TemperatureF,Dew PointF,Humidity,Sea Level PressureIn,VisibilityMPH,Wind Direction,Wind SpeedMPH,Gust SpeedMPH,PrecipitationIn,Events,Conditions,WindDirDegrees,DateUTC
12:53 AM,37.0,33.1,86,30.38,10.0,NE,3.5,-,N/A,,Clear,40,2012-11-28 06:53:00
1:53 AM,36.0,32.0,86,30.39,10.0,NNE,3.5,-,N/A,,Clear,30,2012-11-28 07:53:00
2:53 AM,35.1,30.9,85,30.40,10.0,NNE,5.8,-,N/A,,Clear,20,2012-11-28 08:53:00
3:53 AM,33.1,30.0,89,30.40,9.0,NNE,4.6,-,N/A,,Clear,30,2012-11-28 09:53:00
4:53 AM,33.1,30.0,89,30.41,9.0,Calm,Calm,-,N/A,,Clear,0,2012-11-28 10:53:00
5:46 AM,30.2,30.2,100,30.43,1.8,Calm,Calm,-,N/A,,Clear,0,2012-11-28 11:46:00
5:53 AM,32.0,30.0,92,30.43,6.0,Calm,Calm,-,N/A,,Clear,0,2012-11-28 11:53:00
6:12 AM,30.2,28.4,93,30.44,0.8,Calm,Calm,-,N/A,,Clear,0,2012-11-28 12:12:00
6:27 AM,30.2,28.4,93,30.45,2.0,Calm,Calm,-,N/A,,Clear,0,2012-11-28 12:27:00
6:35 AM,30.2,30.2,100,30.45,0.8,Calm,Calm,-,N/A,,Clear,0,2012-11-28 12:35:00
6:51 AM,30.2,28.4,93,30.46,1.2,Calm,Calm,-,N/A,,Clear,0,2012-11-28 12:51:00
6:53 AM,30.9,28.9,92,30.46,1.5,Calm,Calm,-,N/A,,Clear,0,2012-11-28 12:53:00
7:11 AM,30.2,28.4,93,30.47,6.0,NNE,3.5,-,N/A,,Clear,20,2012-11-28 13:11:00
7:53 AM,35.1,33.1,92,30.49,5.0,NNE,3.5,-,N/A,,Clear,30,2012-11-28 13:53:00
8:53 AM,42.1,36.0,79,30.51,9.0,East,4.6,-,N/A,,Clear,90,2012-11-28 14:53:00
9:53 AM,46.0,37.0,71,30.51,10.0,Calm,Calm,-,N/A,,Clear,0,2012-11-28 15:53:00
10:53 AM,52.0,36.0,54,30.51,10.0,Variable,3.5,-,N/A,,Clear,0,2012-11-28 16:53:00
11:53 AM,53.1,34.0,48,30.48,10.0,Variable,4.6,-,N/A,,Clear,0,2012-11-28 17:53:00
12:53 PM,55.9,34.0,44,30.44,10.0,NNE,4.6,-,N/A,,Clear,20,2012-11-28 18:53:00
1:53 PM,57.9,30.9,36,30.41,10.0,Variable,4.6,-,N/A,,Clear,0,2012-11-28 19:53:00
2:53 PM,57.9,30.9,36,30.39,10.0,Calm,Calm,-,N/A,,Clear,0,2012-11-28 20:53:00
3:53 PM,57.9,32.0,37,30.39,10.0,NE,4.6,-,N/A,,Clear,50,2012-11-28 21:53:00
4:53 PM,53.1,33.1,47,30.38,10.0,ENE,4.6,-,N/A,,Clear,60,2012-11-28 22:53:00
5:53 PM,45.0,34.0,65,30.39,10.0,ENE,3.5,-,N/A,,Clear,60,2012-11-28 23:53:00
6:53 PM,42.1,36.0,79,30.39,10.0,Calm,Calm,-,N/A,,Clear,0,2012-11-29 00:53:00
7:53 PM,39.9,36.0,86,30.40,10.0,Calm,Calm,-,N/A,,Clear,0,2012-11-29 01:53:00
8:53 PM,37.0,34.0,89,30.39,10.0,Calm,Calm,-,N/A,,Clear,0,2012-11-29 02:53:00
9:53 PM,37.0,35.1,93,30.39,10.0,Calm,Calm,-,N/A,,Clear,0,2012-11-29 03:53:00
10:53 PM,35.1,32.0,89,30.38,10.0,Calm,Calm,-,N/A,,Clear,0,2012-11-29 04:53:00
11:53 PM,36.0,32.0,86,30.38,10.0,Calm,Calm,-,N/A,,Clear,0,2012-11-29 05:53:00